Regional Weather Roundup
Issued by NWS Cleveland, OH

Home | Current Version | Previous Version | Graphics & Text | Print | Product List | Glossary On
Versions: 1 2 3 4 5 6 7 8 9 10 11 12 13 14 15 16 17 18 19 20 21 22 23 24 25 26 27 28 29 30 31 32 33 34 35 36 37 38 39 40 41 42 43 44 45 46 47 48 49 50
580
ASUS41 KCLE 251302
RWRCLE
OHIO REGIONAL WEATHER ROUNDUP
NATIONAL WEATHER SERVICE CLEVELAND, OH
900 AM EDT SAT MAR 25 2017

NOTE: "FAIR" INDICATES FEW OR NO CLOUDS BELOW 12,000 FEET WITH NO
SIGNIFICANT WEATHER AND/OR OBSTRUCTIONS TO VISIBILITY.

OHZ001>008-015>018-024>027-034-035-043-044-251400-
   NORTHWEST OHIO

CITY           SKY/WX    TMP DP  RH WIND       PRES   REMARKS
DEFIANCE       CLOUDY    49  44  83 NE8       30.11R
FINDLAY        CLOUDY    61  51  70 S5        30.10R
TOLEDO EXPRESS CLOUDY    45  40  82 E9        30.13R
TOLEDO EXEC    CLOUDY    43  40  89 NE7       30.15R FOG
LIMA           CLOUDY    61  51  70 S9        30.10R
$$

OHZ009>014-019>023-028>033-038-089-251400-
   NORTHEAST OHIO

CITY           SKY/WX    TMP DP  RH WIND       PRES   REMARKS
CLE-HOPKINS    CLOUDY    63  51  65 S6        30.15R
CLE-LAKEFRONT  CLOUDY    49  42  77 S3        30.11R
CUY CO. ARPT   CLOUDY    64  54  68 SW8       30.13R
LORAIN-ELYRIA  CLOUDY    56  49  77 W3        30.12R
ASHTABULA      PTSUNNY   53  48  83 CALM      30.13R
AKRON-CANTON   CLOUDY    61  50  67 SW10      30.15R
WOOSTER        CLOUDY    59  50  72 SW9       30.15R
MANSFIELD      MOSUNNY   61  50  67 SW12G17   30.14R
YOUNGSTOWN     CLOUDY    62  51  67 SW10      30.13R
$$

OHZ042-051>053-060>062-070>072-077>081-251400-
  SOUTHWEST OHIO

CITY           SKY/WX    TMP DP  RH WIND       PRES   REMARKS
CINC-COVINGTON CLOUDY    60  49  66 S12       30.12S
CINC-LUNKEN    PTSUNNY   62  51  67 S9        30.14R
HAMILTON       CLOUDY    63  50  62 CALM      30.14R
DAYTON         PTSUNNY   61  48  62 S15       30.12R
WRIGHT-PAT AFB PTSUNNY   62  49  64 S13       30.12R
DAYTON GENERAL PTSUNNY   60  49  66 S12       30.12R
WILMINGTON     CLOUDY    59  49  69 S13       30.13S
$$

OHZ036-037-039>041-045>050-054>059-063>069-073>076-082>088-251400-
  CENTRAL AND SOUTHEAST OHIO

CITY           SKY/WX    TMP DP  RH WIND       PRES   REMARKS
COLUMBUS       CLOUDY    61  50  67 S5        30.15R
OSU AIRPORT    CLOUDY    60  51  72 S9        30.14R
BOLTON FIELD   SUNNY     59  50  72 S9        30.15S
RICKENBACK AFB MOSUNNY   59  50  71 S7        30.15S
NEWARK         MOSUNNY   59  50  72 S3        30.15R
MARION         PTSUNNY   60  50  69 S12       30.14R
LANCASTER      CLOUDY    64  49  57 S9        30.16R
ZANESVILLE     PTSUNNY   62  49  62 SW7       30.17R
NEW PHILLY     NOT AVBL
$$




USA.gov is the U.S. government's official web portal to all federal, state and local government web resources and services.